sat.trackr.live / text

‹ back to catalog

STARLINK-31183

NORAD 58747 · 2024-005V

PAYLOAD ACTIVE UNKNOWN

§ Identity

Operator
Country
US
Launch date
2024-01-07
Launch site
AFETR
Launch vehicle
Mass (kg)
RCS (m²)

Purposes: comms

External: N2YO · Heavens-Above · Gunter

§ Orbital elements

Epoch: 2026-09-20T03:53:17.584512Z

Period
94.27 min
Inclination
43.0029°
Eccentricity
0.0001385
Mean motion
15.27576656 rev/d
Perigee alt
482.1 km
Apogee alt
484.0 km
Semi-major
6,861.2 km
B*
1.4489e-5
RAAN
201.6623°
Arg perigee
266.3102°
Mean anomaly
93.7591°
Rev number
15,028

§ Raw data

STARLINK-311831 58747U 24005V   26263.16200908  .00000137  00000+0  14489-4 0  99972 58747  43.0029 201.6623 0001385 266.3102  93.7591 15.27576656150288

JSON: /api/v1/satellites/58747 · /tle

For live sub-satellite position, see the globe view (requires WebGL).

§ Visibility from observer

Set your observer location to see the next 7 days of passes ≥ 10°. The values pass through the URL so the page stays shareable.

No JS? Fill the form by hand. The geolocation button needs JavaScript.